Location: Unspecified
(39.4946°N, 0.0000°E)
Time: 02:57:34
(UTC+00:00)

Tiros 1 despin weight - All Passes

Search period start: 04 April 2026 00:00
Search period end: 14 April 2026 00:00
Orbit: 555 x 593 km, 48.2° (Epoch: 29 March)

Date Brightness Start Highest point End Pass type
(mag) Time Alt. Az. Time Alt. Az. Time Alt. Az.
4 Apr - 00:25:30 10° NW 00:29:15 26° N 00:32:58 10° ENE night (unlit)
4 Apr - 02:06:15 10° NW 02:10:33 47° NNE 02:14:48 10° E visible
4 Apr - 03:46:58 10° WNW 03:51:06 40° SW 03:55:12 10° SSE visible
4 Apr - 19:25:52 10° S 19:28:54 19° SE 19:31:58 10° E visible
4 Apr - 21:04:41 10° WSW 21:09:03 82° NNW 21:13:27 10° ENE visible
4 Apr - 22:46:11 10° WNW 22:50:04 30° NNW 22:53:59 10° NE night (unlit)
5 Apr - 00:27:43 10° NW 00:31:32 28° N 00:35:21 10° ENE night (unlit)
5 Apr - 02:08:18 10° NW 02:12:41 64° NNE 02:17:04 10° ESE night (unlit)
5 Apr - 03:49:20 10° W 03:53:01 26° SW 03:56:41 10° SSE visible
5 Apr - 19:27:02 10° SSW 19:30:47 29° SE 19:34:33 10° ENE visible
5 Apr - 21:06:51 10° WSW 21:11:09 58° NNW 21:15:29 10° NE visible
5 Apr - 22:48:35 10° WNW 22:52:20 27° N 22:56:07 10° NE night (unlit)
6 Apr - 00:29:51 10° NW 00:33:48 31° NNE 00:37:46 10° ENE night (unlit)
6 Apr - 02:10:21 10° WNW 02:14:47 89° NNE 02:19:11 10° ESE night (unlit)
6 Apr - 03:52:02 10° W 03:54:52 17° SW 03:57:42 10° S visible
6 Apr - 19:28:35 10° SSW 19:32:41 45° SE 19:36:52 10° ENE visible
6 Apr - 21:09:08 10° W 21:13:17 43° NNW 21:17:30 10° NE visible
6 Apr - 22:50:56 10° WNW 22:54:38 26° N 22:58:21 10° NE visible
7 Apr - 00:31:55 10° NW 00:36:02 37° NNE 00:40:09 10° E night (unlit)
7 Apr - 02:12:26 10° WNW 02:16:48 62° SW 02:21:08 10° SE night (unlit)
7 Apr - 03:56:08 10° WSW 03:56:40 10° SW 03:57:12 10° SW night (unlit)
7 Apr - 17:53:16 10° SSE 17:54:45 12° SE 17:56:14 10° ESE daylight
7 Apr - 19:30:23 10° SW 19:34:40 69° SE 19:39:01 10° ENE visible
7 Apr - 21:11:29 10° W 21:15:29 35° NNW 21:19:32 10° NE visible
7 Apr - 22:53:12 10° NW 22:56:54 26° N 23:00:38 10° ENE visible
8 Apr - 00:33:56 10° NW 00:38:12 47° NNE 00:42:28 10° E night (unlit)
8 Apr - 02:14:37 10° WNW 02:18:45 40° SW 02:22:52 10° SSE night (unlit)
8 Apr - 17:53:32 10° S 17:56:33 19° SE 17:59:35 10° E daylight
8 Apr - 19:32:21 10° WSW 19:36:40 81° NNW 19:41:04 10° ENE visible
8 Apr - 21:13:51 10° WNW 21:17:42 30° NNW 21:21:35 10° NE visible
8 Apr - 22:55:22 10° NW 22:59:10 28° N 23:02:58 10° ENE visible
9 Apr - 00:35:55 10° NW 00:40:18 64° NNE 00:44:41 10° ESE night (unlit)
9 Apr - 02:16:58 10° W 02:20:38 26° SW 02:24:18 10° SSE night (unlit)
9 Apr - 17:54:40 10° SSW 17:58:23 29° SE 18:02:08 10° ENE daylight
9 Apr - 19:34:30 10° WSW 19:38:45 57° NNW 19:43:04 10° NE visible
9 Apr - 21:16:13 10° WNW 21:19:56 27° N 21:23:42 10° NE visible
9 Apr - 22:57:27 10° NW 23:01:24 31° NNE 23:05:21 10° ENE visible
10 Apr - 00:37:56 10° WNW 00:42:21 90° WNW 00:46:46 10° ESE night (unlit)
10 Apr - 02:19:38 10° W 02:22:27 17° SW 02:25:16 10° S night (unlit)
10 Apr - 17:56:11 10° SSW 18:00:16 45° SE 18:04:25 10° ENE daylight
10 Apr - 19:36:45 10° W 19:40:52 43° NNW 19:45:03 10° NE visible
10 Apr - 21:18:31 10° WNW 21:22:11 26° N 21:25:53 10° NE visible
10 Apr - 22:59:29 10° NW 23:03:35 37° NNE 23:07:42 10° E visible
11 Apr - 00:40:00 10° WNW 00:44:20 61° SW 00:48:41 10° SE night (unlit)
11 Apr - 02:23:50 10° SW 02:24:13 10° SW 02:24:36 10° SW night (unlit)
11 Apr - 16:20:51 10° SSE 16:22:18 11° SE 16:23:45 10° ESE daylight
11 Apr - 17:57:57 10° SW 18:02:12 70° SE 18:06:31 10° ENE daylight
11 Apr - 19:39:03 10° W 19:43:00 34° NNW 19:47:02 10° NE visible
11 Apr - 21:20:45 10° NW 21:24:26 26° N 21:28:08 10° ENE visible
11 Apr - 23:01:27 10° NW 23:05:43 47° NNE 23:09:59 10° E visible
12 Apr - 00:42:08 10° WNW 00:46:15 40° SW 00:50:22 10° SSE night (unlit)
12 Apr - 16:21:04 10° S 16:24:03 19° SE 16:27:04 10° E daylight
12 Apr - 17:59:54 10° WSW 18:04:11 80° NNW 18:08:32 10° ENE daylight
12 Apr - 19:41:23 10° WNW 19:45:12 29° NNW 19:49:03 10° NE visible
12 Apr - 21:22:53 10° NW 21:26:39 28° N 21:30:27 10° ENE visible
12 Apr - 23:03:25 10° NW 23:07:47 64° NNE 23:12:10 10° ESE visible
13 Apr - 00:44:27 10° W 00:48:07 26° SW 00:51:45 10° SSE night (unlit)
13 Apr - 16:22:10 10° SSW 16:25:51 29° SE 16:29:35 10° ENE daylight
13 Apr - 18:02:00 10° WSW 18:06:13 57° NNW 18:10:30 10° NE daylight
13 Apr - 19:43:43 10° WNW 19:47:24 27° N 19:51:08 10° NE visible
13 Apr - 21:24:57 10° NW 21:28:51 31° NNE 21:32:47 10° ENE visible
13 Apr - 23:05:24 10° WNW 23:09:48 90° SW 23:14:13 10° ESE visible
